Temp
17 17 16 16 16 16 16 16 15 15 15 15 15 15 15 15 14 14 14 14 13 13 13 13 13 13 13 13 13 13 12 13
17 16 17 17 17 16 16 16 16 16 15 15 14 14 14 14 14 14 13 13 13 12 12 13 12 12 12 13 13 12 12 12
17 17 16 16 16 17 16 16 15 15 15 15 14 14 14 14 14 13 13 13 13 12 12 12 12 12 12 12 13 12 12 12
17 17 17 16 16 16 15 15 15 15 14 15 15 14 14 13 13 13 13 13 12 12 12 12 12 12 12 12 12 12 12 12
17 17 17 16 16 15 15 15 15 14 14 14 14 14 14 14 13 14 13 13 12 12 12 12 12 12 11 11 11 11 12 12
17 18 17 16 16 15 15 14 14 14 14 13 14 13 13 13 13 13 13 13 13 13 13 13 12 12 12 12 11 11 11 11
17 17 16 16 15 15 15 14 14 14 14 13 14 14 13 13 12 12 12 12 12 12 12 12 12 12 12 12 12 12 12 12
17 17 17 16 15 15 15 14 14 14 14 14 14 13 13 12 12 12 12 12 12 12 12 12 12 12 11 11 12 11 12 11
17 18 17 17 15 15 15 14 14 14 14 14 13 13 12 12 12 12 12 12 12 12 12 12 11 11 11 11 11 11 11 11
18 17 17 16 15 15 15 14 14 14 14 13 13 12 12 12 12 12 12 12 12 11 11 11 11 11 11 11 11 11 11 11
18 16 17 16 15 14 14 14 14 14 13 13 12 12 12 12 12 12 11 11 11 10 10 10 10 10 10 10 10 10 10 10
17 16 15 14 14 14 14 14 13 13 13 12 13 12 12 12 11 11 10 10 9 10 9 9 9 9 9 9 10 10 10 9
15 14 14 14 14 14 13 13 12 12 13 12 12 12 11 11 10 9 9 9 9 9 9 9 8 8 8 8 8 8 8 8
14 14 14 13 13 12 12 12 12 12 12 11 11 11 10 10 8 8 8 8 8 8 8 8 7 7 6 6 6 6 6 6
13 13 13 13 13 13 12 12 12 11 11 11 10 10 9 8 7 7 7 7 7 6 6 6 5 5 5 4 4 4 3 4
13 13 13 13 13 13 12 12 11 11 10 9 9 8 8 7 7 7 7 6 5 5 4 4 4 4 3 3 3 3 1 1
13 13 13 12 12 12 11 11 10 9 9 8 7 7 7 7 6 6 5 4 3 3 2 2 2 2 2 1 1 1 0 -0
12 12 12 11 11 11 10 10 9 8 7 6 6 6 5 5 5 4 3 3 2 1 1 1 0 -0 -0 -0 -1 -2 -2 -2
12 11 11 10 10 9 9 8 8 6 6 5 5 3 4 4 3 3 2 2 1 0 -0 -0 -1 -1 -2 -2 -2 -3 -3 -2
11 10 10 10 10 9 8 7 6 5 4 3 3 3 3 3 2 2 1 0 -0 -1 -1 -2 -2 -3 -3 -3 -3 -3 -4 -4
Height
1565 1566 1567 1568 1570 1570 1572 1570 1570 1571 1572 1572 1572 1571 1570 1569 1571 1568 1570 1571 1570 1569 1568 1566 1564 1562 1561 1559 1557 1555 1554 1553
1567 1567 1568 1569 1569 1571 1572 1571 1571 1571 1573 1573 1572 1574 1572 1571 1570 1569 1569 1570 1570 1569 1568 1566 1564 1563 1561 1557 1556 1554 1553 1552
1568 1568 1570 1570 1572 1570 1573 1573 1573 1572 1573 1573 1572 1573 1572 1570 1571 1569 1568 1568 1568 1567 1567 1566 1565 1563 1561 1558 1556 1554 1552 1551
1567 1569 1569 1569 1571 1573 1573 1573 1574 1573 1574 1573 1573 1573 1572 1571 1571 1570 1568 1567 1567 1566 1565 1564 1564 1562 1561 1558 1556 1555 1552 1550
1567 1568 1568 1569 1571 1572 1574 1574 1574 1575 1574 1572 1573 1572 1570 1572 1571 1570 1568 1567 1566 1565 1563 1562 1561 1560 1558 1557 1556 1555 1553 1551
1565 1565 1566 1568 1570 1569 1572 1573 1573 1575 1576 1574 1572 1572 1571 1572 1572 1570 1568 1567 1566 1564 1562 1560 1559 1557 1556 1555 1553 1553 1552 1550
1563 1565 1566 1567 1570 1571 1569 1571 1571 1573 1574 1574 1573 1571 1571 1572 1571 1569 1567 1566 1564 1562 1561 1560 1558 1555 1553 1551 1550 1549 1548 1547
1562 1562 1562 1564 1567 1568 1569 1570 1573 1571 1573 1572 1572 1569 1570 1570 1570 1568 1566 1564 1562 1560 1559 1557 1555 1552 1550 1548 1546 1545 1544 1543
1558 1562 1561 1564 1565 1566 1568 1569 1573 1571 1571 1570 1569 1568 1568 1568 1566 1564 1564 1561 1559 1557 1555 1552 1549 1547 1545 1544 1542 1540 1539 1538
1556 1558 1561 1563 1565 1565 1567 1570 1570 1570 1570 1568 1567 1567 1566 1565 1564 1563 1561 1559 1556 1553 1550 1547 1544 1542 1540 1538 1537 1535 1534 1533
1555 1554 1560 1562 1564 1565 1565 1567 1567 1569 1568 1566 1566 1566 1566 1565 1563 1559 1556 1553 1551 1548 1546 1542 1539 1537 1534 1532 1531 1529 1529 1528
1561 1558 1558 1559 1563 1564 1564 1564 1566 1567 1568 1568 1566 1563 1562 1560 1557 1553 1550 1548 1546 1543 1541 1539 1536 1531 1528 1526 1525 1524 1525 1524
1560 1560 1561 1562 1563 1564 1564 1564 1566 1567 1565 1564 1562 1560 1558 1554 1552 1549 1546 1544 1541 1539 1536 1533 1532 1528 1523 1520 1517 1517 1518 1519
1561 1563 1563 1564 1564 1565 1566 1566 1564 1563 1562 1560 1558 1555 1552 1550 1548 1546 1542 1540 1538 1535 1532 1528 1526 1524 1520 1516 1510 1507 1508 1510
1565 1565 1565 1564 1565 1565 1564 1564 1562 1560 1558 1556 1554 1552 1550 1548 1545 1542 1539 1536 1534 1532 1529 1527 1523 1520 1517 1515 1508 1504 1501 1502
1565 1566 1566 1565 1565 1563 1561 1559 1557 1555 1554 1552 1550 1548 1547 1545 1542 1539 1535 1532 1529 1527 1525 1523 1520 1516 1514 1512 1509 1505 1500 1494
1563 1562 1561 1561 1560 1559 1557 1555 1554 1552 1550 1549 1547 1545 1543 1540 1539 1536 1532 1529 1525 1523 1521 1518 1515 1513 1511 1507 1504 1502 1500 1496
1561 1561 1560 1559 1558 1556 1554 1552 1549 1547 1546 1545 1544 1542 1538 1534 1533 1531 1528 1525 1521 1519 1517 1514 1512 1509 1506 1505 1501 1499 1495 1493
1561 1561 1561 1559 1558 1555 1552 1549 1546 1544 1543 1543 1539 1540 1534 1527 1528 1525 1524 1520 1516 1513 1511 1510 1507 1505 1503 1499 1497 1495 1492 1488
1560 1561 1560 1558 1556 1553 1550 1548 1546 1545 1542 1537 1537 1529 1529 1522 1522 1519 1518 1514 1511 1509 1505 1502 1502 1500 1498 1495 1491 1489 1487 1485
Wind_Speed
13 11 9 7 6 5 4 4 4 4 5 4 6 8 8 9 9 10 10 11 12 12 14 11 10 9 8 10 9 7 3 7
12 10 9 8 9 8 5 7 7 7 6 5 8 8 10 10 11 11 12 13 14 16 17 17 13 10 12 12 10 7 5 8
10 10 10 11 9 9 7 8 7 7 7 6 8 10 10 12 13 13 14 14 16 16 17 19 18 15 15 16 14 10 10 12
8 6 9 11 10 9 10 9 6 7 5 6 6 8 9 10 11 12 13 14 15 16 17 20 22 19 19 18 17 15 13 13
10 7 7 10 7 5 5 6 6 6 6 6 3 5 8 9 10 12 14 14 16 18 21 23 25 23 22 21 19 18 16 15
11 6 7 10 7 6 3 2 3 4 4 5 3 3 5 6 9 11 13 13 15 18 21 24 25 25 23 22 22 21 18 17
14 11 11 10 7 5 7 6 3 3 1 2 4 4 3 5 7 7 8 9 13 15 17 21 25 24 23 26 24 23 22 21
20 15 12 11 12 11 7 7 8 7 3 4 8 8 7 5 8 8 9 11 13 15 20 23 25 25 25 22 24 27 28 26
25 20 7 7 11 8 9 9 8 6 5 7 9 7 7 9 8 10 13 16 17 20 22 25 25 24 25 23 21 19 21 23
27 27 11 9 10 8 11 10 9 10 9 12 12 11 11 9 13 19 23 29 28 28 28 28 25 25 26 25 23 23 21 22
30 22 14 13 13 13 14 13 9 11 9 10 11 10 13 17 19 29 33 30 30 26 28 26 26 26 27 27 27 22 19 19
21 13 9 10 17 17 17 13 12 10 6 8 13 15 16 20 26 32 26 19 21 26 22 24 27 31 31 31 29 28 27 26
15 12 12 20 19 18 14 12 6 5 8 11 12 15 19 26 28 25 20 17 17 19 24 28 29 31 33 37 39 37 31 28
12 12 18 18 15 6 3 4 5 9 12 12 17 20 26 23 19 17 14 15 17 20 22 26 27 30 34 38 30 38 33 23
9 6 4 2 4 5 7 9 12 13 16 19 19 20 18 17 15 14 16 18 21 22 24 26 31 32 33 27 24 21 29 27
7 6 4 4 8 14 15 16 17 19 20 15 15 17 16 15 19 22 24 24 24 26 28 30 29 29 26 22 22 25 18 25
10 11 12 15 17 21 22 21 21 21 18 18 14 12 14 20 26 26 24 23 24 26 26 22 22 21 23 22 25 24 23 28
12 14 14 16 17 20 19 20 20 18 13 11 13 16 23 26 26 23 20 21 29 27 24 20 18 16 17 20 21 21 28 29
12 13 15 14 13 13 16 18 15 9 9 15 20 23 20 19 20 17 21 26 30 25 24 26 27 28 26 25 27 28 28 29
6 8 12 12 15 15 14 10 8 11 26 30 39 24 21 18 16 21 26 26 24 25 23 19 19 20 21 20 21 21 21 22
Wind_Direction
129 128 129 129 139 140 145 129 95 68 61 51 52 53 53 40 40 33 27 12 13 25 8 358 351 347 345 328 323 327 269 239
126 121 116 114 127 121 103 86 88 86 85 76 76 47 58 53 45 37 24 19 21 16 23 17 18 4 353 348 328 317 270 261
136 135 120 102 105 104 100 98 102 106 102 92 71 74 64 48 28 21 14 9 10 12 11 11 8 7 3 0 350 321 296 294
164 144 135 115 111 112 117 103 112 117 85 86 71 65 52 38 22 14 11 4 3 2 359 359 360 359 1 360 356 348 326 304
176 158 153 140 130 134 131 103 100 102 73 70 82 51 37 21 20 16 8 3 357 352 350 348 348 345 348 349 348 353 353 346
179 173 170 150 154 159 150 106 62 78 54 56 69 49 26 17 14 9 5 355 347 342 339 337 333 335 334 332 333 333 333 340
188 176 173 166 180 195 180 180 159 156 359 356 13 6 357 3 356 352 354 336 327 328 325 321 317 322 318 318 319 319 320 320
193 178 170 167 196 204 207 186 178 186 238 309 313 325 326 311 308 326 325 319 319 313 308 307 307 306 303 305 308 309 307 307
199 196 192 190 194 216 215 184 182 191 207 241 260 256 251 259 269 287 311 321 314 309 303 297 297 294 297 296 292 304 309 315
207 199 215 199 223 225 201 180 208 208 225 239 245 235 235 265 293 306 312 310 305 307 308 299 291 290 290 293 298 303 305 304
211 204 236 230 209 199 193 196 205 223 234 235 231 253 295 305 309 311 312 301 294 305 304 294 295 294 294 297 298 304 310 311
206 222 202 174 192 190 190 212 220 231 250 327 313 306 307 301 300 302 303 304 301 302 295 294 300 305 303 299 296 296 297 306
161 165 166 182 188 192 203 206 218 305 303 311 304 295 290 298 300 301 301 296 294 293 294 299 302 304 309 308 306 306 303 293
148 169 189 194 186 184 210 254 274 296 305 291 280 278 290 300 292 291 290 293 298 301 305 307 311 316 317 314 314 309 307 300
155 149 153 229 300 303 303 286 286 281 292 296 300 308 311 300 292 294 306 311 314 315 313 313 316 313 311 310 312 310 313 307
78 79 48 343 326 329 321 307 301 305 309 306 310 306 303 297 302 307 315 320 324 327 323 318 315 312 310 310 310 307 319 315
13 356 351 351 343 339 338 323 315 313 306 305 299 286 293 306 312 316 321 324 330 324 318 317 314 311 316 318 315 313 309 312
347 343 338 332 326 327 322 309 303 297 295 285 295 307 316 317 311 323 325 319 327 320 316 312 315 313 309 313 316 323 318 315
334 336 339 329 322 301 289 287 282 272 283 323 317 320 305 293 304 312 313 315 319 314 312 307 305 303 306 309 310 310 309 304
7 328 317 309 303 288 265 258 270 316 323 317 311 299 289 287 289 309 317 322 313 309 314 326 327 329 326 321 316 316 317 312